Year,Month,Day,Hour,Minute,Value (Times are PST for temperature in C)
2010,08,13,00,00,14.40
2010,08,13,00,01,14.40
2010,08,13,00,02,14.50
2010,08,13,00,03,14.40
2010,08,13,00,04,14.40
2010,08,13,00,05,14.30
2010,08,13,00,06,14.20
2010,08,13,00,07,14.20
2010,08,13,00,08,14.10
2010,08,13,00,09,14.10
2010,08,13,00,10,14.10
2010,08,13,00,11,14.10
2010,08,13,00,12,14.00
2010,08,13,00,13,14.00
2010,08,13,00,14,14.00
2010,08,13,00,15,14.00
2010,08,13,00,16,14.00
2010,08,13,00,17,14.00
2010,08,13,00,18,13.90
2010,08,13,00,19,13.90
2010,08,13,00,20,13.90
2010,08,13,00,21,13.90
2010,08,13,00,22,13.90
2010,08,13,00,23,13.90
2010,08,13,00,24,13.80
2010,08,13,00,25,13.80
2010,08,13,00,26,13.80
2010,08,13,00,27,13.80
2010,08,13,00,28,13.80
2010,08,13,00,29,13.80
2010,08,13,00,30,13.80
2010,08,13,00,31,13.80
2010,08,13,00,32,13.80
2010,08,13,00,33,13.80
2010,08,13,00,34,13.80
2010,08,13,00,35,13.80
2010,08,13,00,36,13.80
2010,08,13,00,37,13.80
2010,08,13,00,38,13.80
2010,08,13,00,39,13.80
2010,08,13,00,40,13.80
2010,08,13,00,41,13.80
2010,08,13,00,42,13.80
2010,08,13,00,43,13.70
2010,08,13,00,44,13.70
2010,08,13,00,45,13.70
2010,08,13,00,46,13.70
2010,08,13,00,47,13.70
2010,08,13,00,48,13.70
2010,08,13,00,49,13.70
2010,08,13,00,50,13.70
2010,08,13,00,51,13.70
2010,08,13,00,52,13.70
2010,08,13,00,53,13.70
2010,08,13,00,54,13.70
2010,08,13,00,55,13.70
2010,08,13,00,56,13.70
2010,08,13,00,57,13.70
2010,08,13,00,58,13.70
2010,08,13,00,59,13.70
2010,08,13,01,00,13.70
2010,08,13,01,01,13.70
2010,08,13,01,02,13.70
2010,08,13,01,03,13.70
2010,08,13,01,04,13.70
2010,08,13,01,05,13.70
2010,08,13,01,06,13.70
2010,08,13,01,07,13.70
2010,08,13,01,08,13.70
2010,08,13,01,09,13.70
2010,08,13,01,10,13.70
2010,08,13,01,11,13.70
2010,08,13,01,12,13.70
2010,08,13,01,13,13.70
2010,08,13,01,14,13.80
2010,08,13,01,15,13.80
2010,08,13,01,16,13.80
2010,08,13,01,17,13.90
2010,08,13,01,18,13.90
2010,08,13,01,19,13.90
2010,08,13,01,20,13.90
2010,08,13,01,21,13.90
2010,08,13,01,22,13.90
2010,08,13,01,23,13.90
2010,08,13,01,24,14.00
2010,08,13,01,25,14.00
2010,08,13,01,26,14.00
2010,08,13,01,27,14.00
2010,08,13,01,28,14.00
2010,08,13,01,29,14.10
2010,08,13,01,30,14.10
2010,08,13,01,31,14.10
2010,08,13,01,32,14.10
2010,08,13,01,33,14.10
2010,08,13,01,34,14.10
2010,08,13,01,35,14.10
2010,08,13,01,36,14.10
2010,08,13,01,37,14.10
2010,08,13,01,38,14.10
2010,08,13,01,39,14.10
2010,08,13,01,40,14.20
2010,08,13,01,41,14.20
2010,08,13,01,42,14.20
2010,08,13,01,43,14.20
2010,08,13,01,44,14.10
2010,08,13,01,45,14.10
2010,08,13,01,46,14.00
2010,08,13,01,47,13.90
2010,08,13,01,48,13.90
2010,08,13,01,49,13.80
2010,08,13,01,50,13.80
2010,08,13,01,51,13.70
2010,08,13,01,52,13.70
2010,08,13,01,53,13.70
2010,08,13,01,54,13.70
2010,08,13,01,55,13.70
2010,08,13,01,56,13.70
2010,08,13,01,57,13.60
2010,08,13,01,58,13.60
2010,08,13,01,59,13.50
2010,08,13,02,00,13.50
2010,08,13,02,01,13.50
2010,08,13,02,02,13.40
2010,08,13,02,03,13.40
2010,08,13,02,04,13.30
2010,08,13,02,05,13.30
2010,08,13,02,06,13.30
2010,08,13,02,07,13.30
2010,08,13,02,08,13.30
2010,08,13,02,09,13.30
2010,08,13,02,10,13.30
2010,08,13,02,11,13.30
2010,08,13,02,12,13.30
2010,08,13,02,13,13.30
2010,08,13,02,14,13.30
2010,08,13,02,15,13.30
2010,08,13,02,16,13.30
2010,08,13,02,17,13.30
2010,08,13,02,18,13.30
2010,08,13,02,19,13.30
2010,08,13,02,20,13.30
2010,08,13,02,21,13.30
2010,08,13,02,22,13.30
2010,08,13,02,23,13.30
2010,08,13,02,24,13.30
2010,08,13,02,25,13.30
2010,08,13,02,26,13.30
2010,08,13,02,27,13.30
2010,08,13,02,28,13.30
2010,08,13,02,29,13.30
2010,08,13,02,30,13.30
2010,08,13,02,31,13.40
2010,08,13,02,32,13.50
2010,08,13,02,33,13.50
2010,08,13,02,34,13.60
2010,08,13,02,35,13.60
2010,08,13,02,36,13.70
2010,08,13,02,37,13.80
2010,08,13,02,38,13.90
2010,08,13,02,39,13.90
2010,08,13,02,40,14.00
2010,08,13,02,41,14.10
2010,08,13,02,42,14.20
2010,08,13,02,43,14.20
2010,08,13,02,44,14.30
2010,08,13,02,45,14.30
2010,08,13,02,46,14.40
2010,08,13,02,47,14.40
2010,08,13,02,48,14.40
2010,08,13,02,49,14.50
2010,08,13,02,50,14.50
2010,08,13,02,51,14.50
2010,08,13,02,52,14.50
2010,08,13,02,53,14.50
2010,08,13,02,54,14.50
2010,08,13,02,55,14.50
2010,08,13,02,56,14.50
2010,08,13,02,57,14.50
2010,08,13,02,58,14.50
2010,08,13,02,59,14.50
2010,08,13,03,00,14.50
2010,08,13,03,01,14.50
2010,08,13,03,02,14.50
2010,08,13,03,03,14.60
2010,08,13,03,04,14.60
2010,08,13,03,05,14.60
2010,08,13,03,06,14.60
2010,08,13,03,07,14.60
2010,08,13,03,08,14.60
2010,08,13,03,09,14.60
2010,08,13,03,10,14.60
2010,08,13,03,11,14.60
2010,08,13,03,12,14.60
2010,08,13,03,13,14.70
2010,08,13,03,14,14.70
2010,08,13,03,15,14.70
2010,08,13,03,16,14.70
2010,08,13,03,17,14.70
2010,08,13,03,18,14.70
2010,08,13,03,19,14.70
2010,08,13,03,20,14.80
2010,08,13,03,21,14.80
2010,08,13,03,22,14.70
2010,08,13,03,23,14.70
2010,08,13,03,24,14.70
2010,08,13,03,25,14.70
2010,08,13,03,26,14.70
2010,08,13,03,27,14.70
2010,08,13,03,28,14.70
2010,08,13,03,29,14.70
2010,08,13,03,30,14.70
2010,08,13,03,31,14.70
2010,08,13,03,32,14.70
2010,08,13,03,33,14.70
2010,08,13,03,34,14.70
2010,08,13,03,35,14.70
2010,08,13,03,36,14.70
2010,08,13,03,37,14.70
2010,08,13,03,38,14.70
2010,08,13,03,39,14.80
2010,08,13,03,40,14.70
2010,08,13,03,41,14.70
2010,08,13,03,42,14.70
2010,08,13,03,43,14.70
2010,08,13,03,44,14.70
2010,08,13,03,45,14.80
2010,08,13,03,46,14.80
2010,08,13,03,47,14.80
2010,08,13,03,48,14.80
2010,08,13,03,49,14.80
2010,08,13,03,50,14.80
2010,08,13,03,51,14.80
2010,08,13,03,52,14.80
2010,08,13,03,53,14.80
2010,08,13,03,54,14.80
2010,08,13,03,55,14.80
2010,08,13,03,56,14.80
2010,08,13,03,57,14.80
2010,08,13,03,58,14.80
2010,08,13,03,59,14.80
2010,08,13,04,00,14.80
2010,08,13,04,01,14.80
2010,08,13,04,02,14.80
2010,08,13,04,03,14.80
2010,08,13,04,04,14.80
2010,08,13,04,05,14.80
2010,08,13,04,06,14.80
2010,08,13,04,07,14.80
2010,08,13,04,08,14.80
2010,08,13,04,09,14.80
2010,08,13,04,10,14.70
2010,08,13,04,11,14.70
2010,08,13,04,12,14.70
2010,08,13,04,13,14.70
2010,08,13,04,14,14.70
2010,08,13,04,15,14.70
2010,08,13,04,16,14.70
2010,08,13,04,17,14.70
2010,08,13,04,18,14.70
2010,08,13,04,19,14.70
2010,08,13,04,20,14.70
2010,08,13,04,21,14.70
2010,08,13,04,22,14.60
2010,08,13,04,23,14.60
2010,08,13,04,24,14.60
2010,08,13,04,25,14.60
2010,08,13,04,26,14.60
2010,08,13,04,27,14.60
2010,08,13,04,28,14.60
2010,08,13,04,29,14.50
2010,08,13,04,30,14.50
2010,08,13,04,31,14.50
2010,08,13,04,32,14.50
2010,08,13,04,33,14.50
2010,08,13,04,34,14.50
2010,08,13,04,35,14.50
2010,08,13,04,36,14.60
2010,08,13,04,37,14.60
2010,08,13,04,38,14.60
2010,08,13,04,39,14.60
2010,08,13,04,40,14.60
2010,08,13,04,41,14.60
2010,08,13,04,42,14.60
2010,08,13,04,43,14.60
2010,08,13,04,44,14.60
2010,08,13,04,45,14.60
2010,08,13,04,46,14.50
2010,08,13,04,47,14.50
2010,08,13,04,48,14.50
2010,08,13,04,49,14.50
2010,08,13,04,50,14.50
2010,08,13,04,51,14.50
2010,08,13,04,52,14.50
2010,08,13,04,53,14.50
2010,08,13,04,54,14.50
2010,08,13,04,55,14.50
2010,08,13,04,56,14.50
2010,08,13,04,57,14.50
2010,08,13,04,58,14.50
2010,08,13,04,59,14.50
2010,08,13,05,00,14.50
2010,08,13,05,01,14.50
2010,08,13,05,02,14.50
2010,08,13,05,03,14.50
2010,08,13,05,04,14.50
2010,08,13,05,05,14.50
2010,08,13,05,06,14.50
2010,08,13,05,07,14.50
2010,08,13,05,08,14.50
2010,08,13,05,09,14.50
2010,08,13,05,10,14.60
2010,08,13,05,11,14.60
2010,08,13,05,12,14.60
2010,08,13,05,13,14.60
2010,08,13,05,14,14.70
2010,08,13,05,15,14.70
2010,08,13,05,16,14.70
2010,08,13,05,17,14.70
2010,08,13,05,18,14.80
2010,08,13,05,19,14.80
2010,08,13,05,20,14.80
2010,08,13,05,21,14.80
2010,08,13,05,22,14.80
2010,08,13,05,23,14.80
2010,08,13,05,24,14.70
2010,08,13,05,25,14.70
2010,08,13,05,26,14.70
2010,08,13,05,27,14.70
2010,08,13,05,28,14.70
2010,08,13,05,29,14.70
2010,08,13,05,30,14.70
2010,08,13,05,31,14.70
2010,08,13,05,32,14.80
2010,08,13,05,33,14.80
2010,08,13,05,34,14.80
2010,08,13,05,35,14.80
2010,08,13,05,36,14.80
2010,08,13,05,37,14.80
2010,08,13,05,38,14.80
2010,08,13,05,39,14.80
2010,08,13,05,40,14.80
2010,08,13,05,41,14.80
2010,08,13,05,42,14.70
2010,08,13,05,43,14.70
2010,08,13,05,44,14.60
2010,08,13,05,45,14.60
2010,08,13,05,46,14.60
2010,08,13,05,47,14.60
2010,08,13,05,48,14.50
2010,08,13,05,49,14.50
2010,08,13,05,50,14.50
2010,08,13,05,51,14.50
2010,08,13,05,52,14.50
2010,08,13,05,53,14.50
2010,08,13,05,54,14.50
2010,08,13,05,55,14.50
2010,08,13,05,56,14.40
2010,08,13,05,57,14.40
2010,08,13,05,58,14.40
2010,08,13,05,59,14.40
2010,08,13,06,00,14.40
2010,08,13,06,01,14.40
2010,08,13,06,02,14.40
2010,08,13,06,03,14.40
2010,08,13,06,04,14.40
2010,08,13,06,05,14.30
2010,08,13,06,06,14.30
2010,08,13,06,07,14.30
2010,08,13,06,08,14.20
2010,08,13,06,09,14.20
2010,08,13,06,10,14.20
2010,08,13,06,11,14.20
2010,08,13,06,12,14.20
2010,08,13,06,13,14.20
2010,08,13,06,14,14.20
2010,08,13,06,15,14.20
2010,08,13,06,16,14.10
2010,08,13,06,17,14.10
2010,08,13,06,18,14.10
2010,08,13,06,19,14.10
2010,08,13,06,20,14.20
2010,08,13,06,21,14.20
2010,08,13,06,22,14.20
2010,08,13,06,23,14.20
2010,08,13,06,24,14.20
2010,08,13,06,25,14.20
2010,08,13,06,26,14.20
2010,08,13,06,27,14.20
2010,08,13,06,28,14.20
2010,08,13,06,29,14.20
2010,08,13,06,30,14.20
2010,08,13,06,31,14.20
2010,08,13,06,32,14.10
2010,08,13,06,33,14.10
2010,08,13,06,34,14.10
2010,08,13,06,35,14.10
2010,08,13,06,36,14.00
2010,08,13,06,37,14.00
2010,08,13,06,38,14.00
2010,08,13,06,39,14.00
2010,08,13,06,40,14.00
2010,08,13,06,41,14.00
2010,08,13,06,42,14.00
2010,08,13,06,43,14.00
2010,08,13,06,44,14.00
2010,08,13,06,45,14.10
2010,08,13,06,46,14.20
2010,08,13,06,47,14.20
2010,08,13,06,48,14.20
2010,08,13,06,49,14.30
2010,08,13,06,50,14.40
2010,08,13,06,51,14.50
2010,08,13,06,52,14.50
2010,08,13,06,53,14.60
2010,08,13,06,54,14.60
2010,08,13,06,55,14.70
2010,08,13,06,56,14.80
2010,08,13,06,57,14.80
2010,08,13,06,58,14.90
2010,08,13,06,59,14.90
2010,08,13,07,00,15.00
2010,08,13,07,01,15.10
2010,08,13,07,02,15.10
2010,08,13,07,03,15.20
2010,08,13,07,04,15.20
2010,08,13,07,05,15.30
2010,08,13,07,06,15.30
2010,08,13,07,07,15.40
2010,08,13,07,08,15.50
2010,08,13,07,09,15.50
2010,08,13,07,10,15.60
2010,08,13,07,11,15.60
2010,08,13,07,12,15.70
2010,08,13,07,13,15.70
2010,08,13,07,14,15.80
2010,08,13,07,15,15.80
2010,08,13,07,16,15.90
2010,08,13,07,17,16.00
2010,08,13,07,18,16.10
2010,08,13,07,19,16.10
2010,08,13,07,20,16.20
2010,08,13,07,21,16.20
2010,08,13,07,22,16.30
2010,08,13,07,23,16.30
2010,08,13,07,24,16.40
2010,08,13,07,25,16.40
2010,08,13,07,26,16.50
2010,08,13,07,27,16.60
2010,08,13,07,28,16.70
2010,08,13,07,29,16.70
2010,08,13,07,30,16.70
2010,08,13,07,31,16.80
2010,08,13,07,32,16.90
2010,08,13,07,33,16.90
2010,08,13,07,34,17.00
2010,08,13,07,35,17.00
2010,08,13,07,36,17.10
2010,08,13,07,37,17.20
2010,08,13,07,38,17.30
2010,08,13,07,39,17.30
2010,08,13,07,40,17.30
2010,08,13,07,41,17.40
2010,08,13,07,42,17.40
2010,08,13,07,43,17.50
2010,08,13,07,44,17.50
2010,08,13,07,45,17.50
2010,08,13,07,46,17.60
2010,08,13,07,47,17.60
2010,08,13,07,48,17.70
2010,08,13,07,49,17.70
2010,08,13,07,50,17.80
2010,08,13,07,51,17.80
2010,08,13,07,52,17.90
2010,08,13,07,53,17.90
2010,08,13,07,54,17.90
2010,08,13,07,55,18.00
2010,08,13,07,56,18.10
2010,08,13,07,57,18.20
2010,08,13,07,58,18.20
2010,08,13,07,59,18.20
2010,08,13,08,00,18.20
2010,08,13,08,01,18.20
2010,08,13,08,02,18.20
2010,08,13,08,03,18.30
2010,08,13,08,04,18.30
2010,08,13,08,05,18.30
2010,08,13,08,06,18.30
2010,08,13,08,07,18.40
2010,08,13,08,08,18.40
2010,08,13,08,09,18.40
2010,08,13,08,10,18.40
2010,08,13,08,11,18.50
2010,08,13,08,12,18.50
2010,08,13,08,13,18.50
2010,08,13,08,14,18.50
2010,08,13,08,15,18.50
2010,08,13,08,16,18.50
2010,08,13,08,17,18.50
2010,08,13,08,18,18.60
2010,08,13,08,19,18.60
2010,08,13,08,20,18.60
2010,08,13,08,21,18.60
2010,08,13,08,22,18.70
2010,08,13,08,23,18.70
2010,08,13,08,24,18.70
2010,08,13,08,25,18.70
2010,08,13,08,26,18.80
2010,08,13,08,27,18.80
2010,08,13,08,28,18.90
2010,08,13,08,29,18.90
2010,08,13,08,30,18.90
2010,08,13,08,31,18.90
2010,08,13,08,32,19.00
2010,08,13,08,33,19.10
2010,08,13,08,34,19.10
2010,08,13,08,35,19.10
2010,08,13,08,36,19.10
2010,08,13,08,37,19.10
2010,08,13,08,38,19.10
2010,08,13,08,39,19.10
2010,08,13,08,40,19.10
2010,08,13,08,41,19.10
2010,08,13,08,42,19.10
2010,08,13,08,43,19.10
2010,08,13,08,44,19.20
2010,08,13,08,45,19.20
2010,08,13,08,46,19.30
2010,08,13,08,47,19.40
2010,08,13,08,48,19.40
2010,08,13,08,49,19.50
2010,08,13,08,50,19.50
2010,08,13,08,51,19.50
2010,08,13,08,52,19.50
2010,08,13,08,53,19.50
2010,08,13,08,54,19.50
2010,08,13,08,55,19.50
2010,08,13,08,56,19.50
2010,08,13,08,57,19.50
2010,08,13,08,58,19.50
2010,08,13,08,59,19.40
2010,08,13,09,00,19.40
2010,08,13,09,01,19.40
2010,08,13,09,02,19.30
2010,08,13,09,03,19.20
2010,08,13,09,04,19.20
2010,08,13,09,05,19.30
2010,08,13,09,06,19.30
2010,08,13,09,07,19.30
2010,08,13,09,08,19.30
2010,08,13,09,09,19.30
2010,08,13,09,10,19.30
2010,08,13,09,11,19.30
2010,08,13,09,12,19.30
2010,08,13,09,13,19.30
2010,08,13,09,14,19.30
2010,08,13,09,15,19.40
2010,08,13,09,16,19.40
2010,08,13,09,17,19.40
2010,08,13,09,18,19.40
2010,08,13,09,19,19.50
2010,08,13,09,20,19.50
2010,08,13,09,21,19.50
2010,08,13,09,22,19.50
2010,08,13,09,23,19.50
2010,08,13,09,24,19.60
2010,08,13,09,25,19.60
2010,08,13,09,26,19.70
2010,08,13,09,27,19.80
2010,08,13,09,28,19.80
2010,08,13,09,29,19.90
2010,08,13,09,30,19.90
2010,08,13,09,31,20.00
2010,08,13,09,32,20.10
2010,08,13,09,33,20.10
2010,08,13,09,34,20.10
2010,08,13,09,35,20.20
2010,08,13,09,36,20.20
2010,08,13,09,37,20.30
2010,08,13,09,38,20.40
2010,08,13,09,39,20.40
2010,08,13,09,40,20.50
2010,08,13,09,41,20.50
2010,08,13,09,42,20.60
2010,08,13,09,43,20.70
2010,08,13,09,44,20.70
2010,08,13,09,45,20.80
2010,08,13,09,46,20.80
2010,08,13,09,47,20.90
2010,08,13,09,48,20.90
2010,08,13,09,49,20.90
2010,08,13,09,50,20.90
2010,08,13,09,51,20.90
2010,08,13,09,52,20.90
2010,08,13,09,53,20.90
2010,08,13,09,54,20.90
2010,08,13,09,55,20.80
2010,08,13,09,56,20.80
2010,08,13,09,57,20.80
2010,08,13,09,58,20.80
2010,08,13,09,59,20.80
2010,08,13,10,00,20.80
2010,08,13,10,01,20.80
2010,08,13,10,02,20.80
2010,08,13,10,03,20.80
2010,08,13,10,04,20.80
2010,08,13,10,05,20.80
2010,08,13,10,06,20.90
2010,08,13,10,07,21.00
2010,08,13,10,08,21.00
2010,08,13,10,09,21.10
2010,08,13,10,10,21.20
2010,08,13,10,11,21.20
2010,08,13,10,12,21.20
2010,08,13,10,13,21.30
2010,08,13,10,14,21.30
2010,08,13,10,15,21.30
2010,08,13,10,16,21.30
2010,08,13,10,17,21.30
2010,08,13,10,18,21.30
2010,08,13,10,19,21.30
2010,08,13,10,20,21.30
2010,08,13,10,21,21.40
2010,08,13,10,22,21.40
2010,08,13,10,23,21.50
2010,08,13,10,24,21.40
2010,08,13,10,25,21.30
2010,08,13,10,26,21.20
2010,08,13,10,27,21.10
2010,08,13,10,28,21.10
2010,08,13,10,29,21.10
2010,08,13,10,30,21.10
2010,08,13,10,31,21.10
2010,08,13,10,32,21.00
2010,08,13,10,33,21.00
2010,08,13,10,34,21.00
2010,08,13,10,35,21.00
2010,08,13,10,36,21.00
2010,08,13,10,37,21.10
2010,08,13,10,38,21.10
2010,08,13,10,39,21.00
2010,08,13,10,40,21.00
2010,08,13,10,41,20.90
2010,08,13,10,42,20.90
2010,08,13,10,43,20.90
2010,08,13,10,44,21.00
2010,08,13,10,45,20.90
2010,08,13,10,46,20.90
2010,08,13,10,47,20.90
2010,08,13,10,48,20.90
2010,08,13,10,49,20.90
2010,08,13,10,50,20.90
2010,08,13,10,51,21.00
2010,08,13,10,52,21.00
2010,08,13,10,53,21.00
2010,08,13,10,54,21.00
2010,08,13,10,55,21.10
2010,08,13,10,56,21.10
2010,08,13,10,57,21.20
2010,08,13,10,58,21.20
2010,08,13,10,59,21.10
2010,08,13,11,00,21.10
2010,08,13,11,01,21.10
2010,08,13,11,02,21.20
2010,08,13,11,03,21.20
2010,08,13,11,04,21.10
2010,08,13,11,05,21.10
2010,08,13,11,06,21.00
2010,08,13,11,07,21.00
2010,08,13,11,08,21.00
2010,08,13,11,09,21.10
2010,08,13,11,10,21.10
2010,08,13,11,11,21.10
2010,08,13,11,12,21.20
2010,08,13,11,13,21.30
2010,08,13,11,14,21.30
2010,08,13,11,15,21.30
2010,08,13,11,16,21.20
2010,08,13,11,17,21.10
2010,08,13,11,18,21.10
2010,08,13,11,19,21.10
2010,08,13,11,20,21.20
2010,08,13,11,21,21.20
2010,08,13,11,22,21.30
2010,08,13,11,23,21.30
2010,08,13,11,24,21.40
2010,08,13,11,25,21.40
2010,08,13,11,26,21.40
2010,08,13,11,27,21.40
2010,08,13,11,28,21.30
2010,08,13,11,29,21.30
2010,08,13,11,30,21.30
2010,08,13,11,31,21.30
2010,08,13,11,32,21.30
2010,08,13,11,33,21.30
2010,08,13,11,34,21.30
2010,08,13,11,35,21.30
2010,08,13,11,36,21.40
2010,08,13,11,37,21.60
2010,08,13,11,38,21.60
2010,08,13,11,39,21.60
2010,08,13,11,40,21.60
2010,08,13,11,41,21.60
2010,08,13,11,42,21.60
2010,08,13,11,43,21.60
2010,08,13,11,44,21.60
2010,08,13,11,45,21.60
2010,08,13,11,46,21.60
2010,08,13,11,47,21.60
2010,08,13,11,48,21.70
2010,08,13,11,49,21.70
2010,08,13,11,50,21.80
2010,08,13,11,51,21.80
2010,08,13,11,52,21.80
2010,08,13,11,53,21.80
2010,08,13,11,54,21.80
2010,08,13,11,55,21.70
2010,08,13,11,56,21.70
2010,08,13,11,57,21.80
2010,08,13,11,58,21.80
2010,08,13,11,59,21.90
2010,08,13,12,00,22.00
2010,08,13,12,01,22.00
2010,08,13,12,02,22.10
2010,08,13,12,03,22.10
2010,08,13,12,04,22.20
2010,08,13,12,05,22.20
2010,08,13,12,06,22.10
2010,08,13,12,07,21.90
2010,08,13,12,08,21.70
2010,08,13,12,09,21.70
2010,08,13,12,10,21.60
2010,08,13,12,11,21.60
2010,08,13,12,12,21.60
2010,08,13,12,13,21.60
2010,08,13,12,14,21.70
2010,08,13,12,15,21.70
2010,08,13,12,16,21.70
2010,08,13,12,17,21.70
2010,08,13,12,18,21.60
2010,08,13,12,19,21.60
2010,08,13,12,20,21.60
2010,08,13,12,21,21.50
2010,08,13,12,22,21.40
2010,08,13,12,23,21.40
2010,08,13,12,24,21.40
2010,08,13,12,25,21.50
2010,08,13,12,26,21.60
2010,08,13,12,27,21.60
2010,08,13,12,28,21.70
2010,08,13,12,29,21.80
2010,08,13,12,30,21.90
2010,08,13,12,31,22.00
2010,08,13,12,32,22.00
2010,08,13,12,33,22.00
2010,08,13,12,34,22.10
2010,08,13,12,35,22.20
2010,08,13,12,36,22.30
2010,08,13,12,37,22.50
2010,08,13,12,38,22.70
2010,08,13,12,39,22.80
2010,08,13,12,40,22.90
2010,08,13,12,41,23.10
2010,08,13,12,42,23.20
2010,08,13,12,43,23.30
2010,08,13,12,44,23.30
2010,08,13,12,45,23.40
2010,08,13,12,46,23.60
2010,08,13,12,47,23.70
2010,08,13,12,48,23.80
2010,08,13,12,49,23.90
2010,08,13,12,50,24.00
2010,08,13,12,51,24.10
2010,08,13,12,52,24.20
2010,08,13,12,53,24.20
2010,08,13,12,54,24.30
2010,08,13,12,55,24.30
2010,08,13,12,56,24.40
2010,08,13,12,57,24.40
2010,08,13,12,58,24.50
2010,08,13,12,59,24.60
2010,08,13,13,00,24.60
2010,08,13,13,01,24.70
2010,08,13,13,02,24.80
2010,08,13,13,03,24.80
2010,08,13,13,04,24.90
2010,08,13,13,05,24.90
2010,08,13,13,06,25.00
2010,08,13,13,07,25.10
2010,08,13,13,08,25.10
2010,08,13,13,09,25.10
2010,08,13,13,10,25.00
2010,08,13,13,11,25.00
2010,08,13,13,12,24.90
2010,08,13,13,13,24.90
2010,08,13,13,14,24.90
2010,08,13,13,15,25.00
2010,08,13,13,16,25.00
2010,08,13,13,17,25.00
2010,08,13,13,18,25.10
2010,08,13,13,19,25.10
2010,08,13,13,20,25.20
2010,08,13,13,21,25.20
2010,08,13,13,22,25.20
2010,08,13,13,23,25.30
2010,08,13,13,24,25.30
2010,08,13,13,25,25.30
2010,08,13,13,26,25.30
2010,08,13,13,27,25.30
2010,08,13,13,28,25.30
2010,08,13,13,29,25.30
2010,08,13,13,30,25.30
2010,08,13,13,31,25.40
2010,08,13,13,32,25.30
2010,08,13,13,33,25.30
2010,08,13,13,34,25.20
2010,08,13,13,35,25.20
2010,08,13,13,36,25.20
2010,08,13,13,37,25.20
2010,08,13,13,38,25.20
2010,08,13,13,39,25.20
2010,08,13,13,40,25.20
2010,08,13,13,41,25.00
2010,08,13,13,42,24.90
2010,08,13,13,43,24.90
2010,08,13,13,44,24.80
2010,08,13,13,45,24.70
2010,08,13,13,46,24.60
2010,08,13,13,47,24.70
2010,08,13,13,48,24.80
2010,08,13,13,49,24.80
2010,08,13,13,50,24.90
2010,08,13,13,51,25.00
2010,08,13,13,52,25.20
2010,08,13,13,53,25.30
2010,08,13,13,54,25.40
2010,08,13,13,55,25.60
2010,08,13,13,56,25.60
2010,08,13,13,57,25.60
2010,08,13,13,58,25.60
2010,08,13,13,59,25.60
2010,08,13,14,00,25.60
2010,08,13,14,01,25.60
2010,08,13,14,02,25.60
2010,08,13,14,03,25.50
2010,08,13,14,04,25.60
2010,08,13,14,05,25.60
2010,08,13,14,06,25.60
2010,08,13,14,07,25.70
2010,08,13,14,08,25.70
2010,08,13,14,09,25.80
2010,08,13,14,10,25.80
2010,08,13,14,11,25.70
2010,08,13,14,12,25.70
2010,08,13,14,13,25.70
2010,08,13,14,14,25.70
2010,08,13,14,15,25.70
2010,08,13,14,16,25.80
2010,08,13,14,17,25.80
2010,08,13,14,18,25.80
2010,08,13,14,19,25.80
2010,08,13,14,20,25.80
2010,08,13,14,21,25.90
2010,08,13,14,22,25.90
2010,08,13,14,23,25.90
2010,08,13,14,24,26.00
2010,08,13,14,25,26.00
2010,08,13,14,26,25.90
2010,08,13,14,27,26.00
2010,08,13,14,28,26.00
2010,08,13,14,29,26.00
2010,08,13,14,30,26.00
2010,08,13,14,31,26.00
2010,08,13,14,32,26.00
2010,08,13,14,33,26.10
2010,08,13,14,34,26.10
2010,08,13,14,35,26.10
2010,08,13,14,36,26.20
2010,08,13,14,37,26.20
2010,08,13,14,38,26.20
2010,08,13,14,39,26.30
2010,08,13,14,40,26.40
2010,08,13,14,41,26.50
2010,08,13,14,42,26.60
2010,08,13,14,43,26.60
2010,08,13,14,44,26.70
2010,08,13,14,45,26.80
2010,08,13,14,46,26.90
2010,08,13,14,47,27.00
2010,08,13,14,48,27.10
2010,08,13,14,49,27.20
2010,08,13,14,50,27.20
2010,08,13,14,51,27.20
2010,08,13,14,52,27.30
2010,08,13,14,53,27.20
2010,08,13,14,54,27.20
2010,08,13,14,55,27.20
2010,08,13,14,56,27.20
2010,08,13,14,57,27.30
2010,08,13,14,58,27.30
2010,08,13,14,59,27.30
2010,08,13,15,00,27.40
2010,08,13,15,01,27.60
2010,08,13,15,02,27.60
2010,08,13,15,03,27.60
2010,08,13,15,04,27.60
2010,08,13,15,05,27.60
2010,08,13,15,06,27.60
2010,08,13,15,07,27.60
2010,08,13,15,08,27.60
2010,08,13,15,09,27.70
2010,08,13,15,10,27.70
2010,08,13,15,11,27.70
2010,08,13,15,12,27.70
2010,08,13,15,13,27.70
2010,08,13,15,14,27.60
2010,08,13,15,15,27.60
2010,08,13,15,16,27.60
2010,08,13,15,17,27.50
2010,08,13,15,18,27.40
2010,08,13,15,19,27.30
2010,08,13,15,20,27.30
2010,08,13,15,21,27.20
2010,08,13,15,22,27.20
2010,08,13,15,23,27.20
2010,08,13,15,24,27.20
2010,08,13,15,25,27.20
2010,08,13,15,26,27.10
2010,08,13,15,27,27.10
2010,08,13,15,28,27.00
2010,08,13,15,29,26.90
2010,08,13,15,30,26.80
2010,08,13,15,31,26.70
2010,08,13,15,32,26.60
2010,08,13,15,33,26.60
2010,08,13,15,34,26.60
2010,08,13,15,35,26.60
2010,08,13,15,36,26.60
2010,08,13,15,37,26.60
2010,08,13,15,38,26.60
2010,08,13,15,39,26.60
2010,08,13,15,40,26.50
2010,08,13,15,41,26.30
2010,08,13,15,42,26.10
2010,08,13,15,43,25.90
2010,08,13,15,44,25.70
2010,08,13,15,45,25.50
2010,08,13,15,46,25.30
2010,08,13,15,47,25.10
2010,08,13,15,48,25.00
2010,08,13,15,49,24.90
2010,08,13,15,50,24.80
2010,08,13,15,51,24.80
2010,08,13,15,52,24.80
2010,08,13,15,53,24.90
2010,08,13,15,54,25.00
2010,08,13,15,55,25.10
2010,08,13,15,56,25.20
2010,08,13,15,57,25.30
2010,08,13,15,58,25.30
2010,08,13,15,59,25.30
2010,08,13,16,00,25.40
2010,08,13,16,01,25.40
2010,08,13,16,02,25.40
2010,08,13,16,03,25.40
2010,08,13,16,04,25.40
2010,08,13,16,05,25.40
2010,08,13,16,06,25.40
2010,08,13,16,07,25.40
2010,08,13,16,08,25.40
2010,08,13,16,09,25.40
2010,08,13,16,10,25.50
2010,08,13,16,11,25.60
2010,08,13,16,12,25.70
2010,08,13,16,13,25.80
2010,08,13,16,14,25.90
2010,08,13,16,15,26.10
2010,08,13,16,16,26.20
2010,08,13,16,17,26.40
2010,08,13,16,18,26.50
2010,08,13,16,19,26.60
2010,08,13,16,20,26.70
2010,08,13,16,21,26.90
2010,08,13,16,22,27.00
2010,08,13,16,23,27.10
2010,08,13,16,24,27.20
2010,08,13,16,25,27.30
2010,08,13,16,26,27.30
2010,08,13,16,27,27.30
2010,08,13,16,28,27.30
2010,08,13,16,29,27.30
2010,08,13,16,30,27.30
2010,08,13,16,31,27.40
2010,08,13,16,32,27.50
2010,08,13,16,33,27.60
2010,08,13,16,34,27.60
2010,08,13,16,35,27.60
2010,08,13,16,36,27.60
2010,08,13,16,37,27.60
2010,08,13,16,38,27.60
2010,08,13,16,39,27.60
2010,08,13,16,40,27.40
2010,08,13,16,41,27.40
2010,08,13,16,42,27.50
2010,08,13,16,43,27.60
2010,08,13,16,44,27.60
2010,08,13,16,45,27.60
2010,08,13,16,46,27.70
2010,08,13,16,47,27.80
2010,08,13,16,48,27.80
2010,08,13,16,49,27.80
2010,08,13,16,50,27.80
2010,08,13,16,51,27.70
2010,08,13,16,52,27.70
2010,08,13,16,53,27.70
2010,08,13,16,54,27.70
2010,08,13,16,55,27.70
2010,08,13,16,56,27.70
2010,08,13,16,57,27.70
2010,08,13,16,58,27.70
2010,08,13,16,59,27.60
2010,08,13,17,00,27.60
2010,08,13,17,01,27.50
2010,08,13,17,02,27.40
2010,08,13,17,03,27.40
2010,08,13,17,04,27.50
2010,08,13,17,05,27.60
2010,08,13,17,06,27.60
2010,08,13,17,07,27.60
2010,08,13,17,08,27.60
2010,08,13,17,09,27.60
2010,08,13,17,10,27.60
2010,08,13,17,11,27.60
2010,08,13,17,12,27.50
2010,08,13,17,13,27.40
2010,08,13,17,14,27.40
2010,08,13,17,15,27.40
2010,08,13,17,16,27.40
2010,08,13,17,17,27.40
2010,08,13,17,18,27.40
2010,08,13,17,19,27.40